CW4482 Weather Reports


time (UTC)temp
F
wind
direction
speed
knots
gust
knots
rain 1hr
in
rain 24hr
in
rain mn
in
humidity
%
barometer
mb
20260502220021 77 33 1.7 6.1 0.00 0.54 0.00 48 1017.8
20260502214521 78 41 2.6 8.7 0.00 0.78 0.00 57 1018.0
20260502213021 77 18 1.7 5.2 0.00 0.78 0.00 55 1017.9
20260502211525 78 38 2.6 7.0 0.00 0.78 0.00 47 1018.0
20260502210015 78 332 4.3 11.3 0.00 0.78 0.00 46 1018.1
20260502204513 77 347 2.6 8.7 0.00 0.99 0.00 46 1018.2
20260502203013 77 23 2.6 8.7 0.00 0.99 0.00 50 1018.4
20260502201513 76 294 1.7 8.7 0.00 0.99 0.00 58 1018.4
20260502200013 76 36 2.6 8.7 0.00 0.99 0.00 58 1018.6
20260502194511 75 343 1.7 9.6 0.00 1.22 0.00 50 1018.8
20260502193036 74 24 2.6 7.8 0.00 1.22 0.00 53 1019.1
20260502191514 74 22 2.6 7.8 0.00 1.22 0.00 57 1019.1
20260502190011 74 298 1.7 8.7 0.00 1.22 0.00 55 1019.2
20260502184514 73 332 3.5 10.4 0.00 1.88 0.00 52 1019.4
20260502181527 72 44 1.7 7.8 0.00 1.88 0.00 63 1019.7
20260502163015 67 11 3.5 9.6 0.00 2.19 0.00 71 1020.2
20260502161528 66 34 3.5 10.4 0.00 2.19 0.00 70 1020.1
20260502151527 62 318 1.7 8.7 0.00 2.19 0.00 80 1019.9
20260502123013 53 336 0.0 1.7 0.00 2.36 0.00 94 1018.3
20260502121521 53 336 0.0 1.7 0.00 2.36 0.00 94 1018.3
20260502114524 53 336 0.0 1.7 0.00 2.37 0.00 94 1017.8
20260502113029 53 343 0.9 2.6 0.00 2.37 0.00 94 1017.7
20260502111551 53 344 0.9 2.6 0.00 2.37 0.00 94 1017.5
20260502110024 53 342 0.9 2.6 0.00 2.37 0.00 94 1017.5
20260502104524 53 360 0.9 2.6 0.00 2.55 0.00 93 1017.3
20260502103015 53 360 0.9 2.6 0.00 2.55 0.00 94 1017.1
20260502101512 53 355 0.9 2.6 0.00 2.55 0.00 94 1016.7
20260502071516 55 49 1.7 5.2 0.00 3.44 0.00 95 1015.7
20260502070036 55 20 0.9 5.2 0.00 3.44 0.00 95 1015.7
20260502064515 55 17 0.9 8.7 0.00 3.51 0.00 95 1015.3
20260502063017 55 339 0.9 8.7 0.00 3.51 0.00 95 1015.4
20260502061515 55 355 1.7 4.3 0.00 3.51 0.00 95 1015.2
20260502060012 55 14 1.7 5.2 0.00 3.51 0.00 95 1015.3
20260502054511 55 51 1.7 12.2 0.00 3.88 0.00 95 1015.3
20260502053012 56 355 1.7 9.6 0.00 3.88 0.00 95 1015.5
20260502051513 56 28 1.7 7.8 0.00 3.88 0.00 95 1015.4
20260502050034 56 26 1.7 11.3 0.00 3.88 0.00 95 1015.5
20260502044534 56 320 1.7 5.2 0.00 3.88 3.88 95 1015.4
20260502043038 56 38 1.7 8.7 0.00 3.88 3.88 95 1015.3
20260502041514 56 355 1.7 7.8 0.02 3.88 3.88 95 1015.5
20260502040015 56 82 0.9 4.3 0.02 3.88 3.88 95 1015.2
20260502034512 56 34 1.7 5.2 0.02 3.89 3.88 95 1015.1
20260502033011 56 30 1.7 7.8 0.04 3.89 3.88 95 1014.7
20260502031530 56 22 4.3 9.6 0.02 3.87 3.86 95 1014.3
20260502030047 57 14 1.7 8.7 0.03 3.87 3.86 95 1014.0
20260502024527 57 335 1.7 5.2 0.03 3.89 3.86 95 1013.9
20260502023024 57 19 1.7 5.2 0.02 3.87 3.84 95 1013.9
20260502021524 57 348 1.7 4.3 0.04 3.87 3.84 95 1014.0
20260502020012 57 346 1.7 6.1 0.05 3.86 3.83 95 1013.4
20260502014558 57 54 1.7 10.4 0.09 3.86 3.83 95 1012.9
20260502013033 58 5 1.7 8.7 0.11 3.85 3.82 95 1012.8
20260502011512 58 309 1.7 7.8 0.14 3.82 3.79 96 1012.9
20260502010012 59 346 2.6 7.8 0.16 3.81 3.78 95 1011.7
20260502004514 59 5 0.9 4.3 0.14 3.77 3.74 95 1011.6
20260502003014 59 360 1.7 6.1 0.17 3.74 3.71 96 1011.4
20260502001522 59 53 0.9 7.0 0.20 3.68 3.65 96 1011.9
20260502000015 59 43 2.6 12.2 0.17 3.65 3.62 96 1010.4
20260501234512 59 23 2.6 8.7 0.15 3.63 3.60 95 1011.3
20260501233033 59 33 1.7 7.0 0.09 3.56 3.53 95 1011.5
20260501231533 59 337 1.7 8.7 0.04 3.48 3.45 95 1011.6
20260501230019 60 44 2.6 10.4 0.09 3.48 3.45 95 1010.1
20260501224514 60 27 0.9 12.2 0.17 3.48 3.45 96 1010.7
20260501223013 61 38 1.7 7.0 0.23 3.46 3.43 96 1010.7
20260501221534 61 67 1.7 7.0 0.25 3.43 3.40 96 1010.6